Location: St. Louis
(38.6270°N, 90.1994°W)
Time: 20:49:49
(UTC-06:00)

Vanguard 1 - Pass Details

Date: 03 December 2021
Orbit: 652 x 3830 km, 34.2° (Epoch: 21 January)

Event Time Altitude Azimuth Distance (km) Brightness Sun altitude
Rises 22:43:32 0° 225° (SW) 6,734 14.3 -68.2°
Enters shadow 22:47:27 10° 221° (SW) 6,074 14.0 -68.7°
Exits shadow 23:29:01 10° 80° (E) 6,404 14.1 -73.0°
Drops below altitude 10° 23:29:08 10° 80° (E) 6,423 14.1 -73.0°
Sets 23:33:37 0° 77° (ENE) 7,163 14.5 -73.2°
